Temp
-6 -6 -6 -6 -6 -6 -6 -7 -7 -7 -7 -7 -7 -7 -7 -7 -7 -7 -7 -7 -7 -7 -7 -7 -8 -8 -8 -8 -8 -8 -8 -8 -8 -8 -9 -9 -9 -9 -9 -8 -8 -8 -8 -8 -8 -8 -8 -8 -8 -8 -8 -7 -7 -7 -7 -7 -7 -6 -6 -6 -6 -6 -6 -6 -6 -6 -6 -6 -6 -6 -6 -6 -6 -6
-6 -6 -6 -6 -6 -6 -6 -7 -7 -7 -7 -7 -7 -7 -7 -7 -7 -7 -7 -7 -7 -7 -7 -7 -8 -8 -8 -8 -8 -8 -8 -8 -8 -9 -9 -9 -9 -9 -8 -8 -8 -8 -8 -8 -8 -8 -8 -8 -8 -7 -7 -7 -7 -7 -7 -7 -6 -6 -6 -6 -6 -6 -6 -6 -6 -6 -6 -6 -6 -6 -6 -6 -6 -6
-6 -6 -6 -6 -6 -6 -6 -6 -7 -7 -7 -7 -7 -7 -7 -7 -7 -7 -7 -7 -7 -7 -7 -7 -8 -8 -8 -8 -8 -8 -8 -8 -8 -9 -9 -9 -9 -9 -8 -8 -8 -9 -8 -8 -8 -8 -8 -8 -7 -7 -7 -7 -7 -7 -7 -6 -6 -6 -6 -6 -6 -6 -6 -6 -6 -6 -6 -6 -6 -6 -6 -6 -6 -6
-6 -6 -6 -6 -6 -6 -6 -6 -7 -7 -7 -7 -7 -7 -7 -7 -7 -7 -7 -7 -7 -7 -7 -8 -8 -8 -8 -8 -8 -8 -8 -8 -9 -9 -9 -8 -8 -8 -8 -8 -9 -9 -9 -8 -8 -8 -7 -7 -7 -7 -7 -7 -7 -7 -7 -6 -6 -6 -6 -6 -6 -6 -6 -6 -6 -6 -6 -6 -6 -6 -6 -6 -6 -6
-6 -6 -6 -6 -6 -6 -6 -6 -6 -6 -7 -7 -7 -7 -7 -7 -7 -7 -7 -7 -7 -7 -7 -8 -8 -8 -8 -8 -8 -8 -8 -9 -9 -9 -8 -8 -8 -8 -8 -8 -9 -9 -9 -8 -8 -8 -7 -7 -7 -7 -7 -7 -7 -7 -6 -6 -6 -6 -6 -6 -6 -6 -6 -6 -6 -6 -6 -6 -6 -6 -6 -6 -6 -6
-6 -6 -6 -6 -6 -6 -6 -6 -6 -6 -6 -7 -7 -7 -7 -7 -7 -7 -7 -7 -7 -7 -7 -8 -8 -8 -8 -8 -8 -8 -8 -9 -8 -8 -8 -8 -8 -8 -8 -9 -9 -9 -8 -8 -8 -8 -7 -7 -7 -7 -7 -7 -7 -6 -6 -6 -6 -6 -6 -6 -6 -6 -6 -6 -6 -6 -5 -5 -5 -5 -6 -6 -6 -6
-6 -6 -6 -6 -7 -7 -6 -6 -6 -6 -6 -6 -7 -7 -7 -7 -7 -7 -7 -7 -7 -7 -7 -7 -8 -8 -8 -8 -8 -8 -8 -8 -8 -8 -8 -8 -8 -8 -8 -9 -9 -9 -8 -8 -8 -8 -7 -7 -7 -7 -7 -7 -7 -6 -6 -6 -6 -6 -6 -6 -6 -6 -6 -6 -6 -5 -5 -5 -5 -5 -5 -6 -6 -6
-6 -6 -6 -6 -7 -7 -6 -6 -6 -6 -6 -6 -6 -6 -7 -7 -7 -7 -7 -7 -7 -7 -7 -7 -7 -7 -8 -8 -8 -8 -8 -8 -8 -8 -8 -8 -8 -8 -9 -9 -9 -8 -8 -8 -8 -7 -7 -7 -7 -7 -7 -7 -7 -7 -6 -6 -6 -6 -6 -6 -6 -6 -6 -6 -5 -5 -5 -5 -5 -5 -5 -5 -5 -6
-6 -6 -6 -6 -6 -6 -6 -6 -6 -6 -6 -6 -6 -6 -6 -6 -7 -7 -7 -7 -7 -7 -7 -7 -7 -7 -7 -8 -8 -8 -8 -8 -8 -8 -8 -8 -8 -8 -9 -9 -9 -8 -8 -8 -8 -7 -7 -7 -7 -7 -7 -7 -7 -7 -7 -6 -6 -6 -6 -6 -6 -6 -6 -6 -5 -5 -5 -5 -5 -5 -5 -5 -5 -5
-6 -6 -6 -6 -6 -6 -6 -6 -6 -6 -6 -6 -6 -6 -6 -6 -6 -7 -7 -7 -7 -7 -7 -7 -7 -7 -7 -8 -8 -8 -8 -8 -8 -8 -8 -8 -9 -9 -9 -9 -8 -8 -8 -8 -8 -8 -7 -7 -7 -7 -7 -7 -7 -7 -7 -6 -6 -6 -6 -6 -6 -6 -6 -6 -5 -5 -5 -5 -5 -5 -5 -5 -5 -5
-6 -6 -6 -6 -6 -6 -6 -6 -6 -6 -6 -5 -5 -6 -6 -6 -6 -6 -7 -7 -7 -7 -7 -7 -7 -7 -7 -7 -8 -8 -8 -8 -8 -8 -8 -8 -9 -9 -9 -8 -8 -8 -8 -8 -8 -8 -7 -7 -7 -7 -7 -7 -7 -7 -7 -6 -6 -6 -6 -6 -6 -6 -6 -6 -5 -5 -5 -5 -5 -5 -5 -5 -5 -5
-6 -6 -6 -6 -6 -6 -6 -6 -6 -6 -5 -5 -5 -5 -5 -6 -6 -6 -6 -6 -7 -7 -7 -7 -7 -7 -7 -7 -7 -8 -8 -8 -8 -8 -8 -8 -9 -9 -8 -8 -8 -8 -8 -8 -8 -8 -7 -7 -7 -7 -7 -7 -7 -7 -7 -6 -6 -6 -6 -6 -6 -6 -6 -6 -5 -5 -5 -5 -5 -5 -5 -5 -5 -5
-6 -6 -6 -6 -6 -6 -6 -6 -6 -6 -5 -5 -5 -5 -5 -5 -6 -6 -6 -6 -6 -7 -7 -7 -7 -7 -7 -7 -7 -8 -8 -8 -8 -8 -8 -8 -8 -8 -8 -8 -8 -8 -8 -8 -8 -8 -8 -7 -7 -7 -7 -7 -7 -7 -7 -6 -6 -7 -6 -6 -6 -6 -6 -6 -5 -5 -5 -5 -5 -5 -4 -5 -5 -5
-6 -6 -6 -6 -6 -6 -6 -6 -5 -5 -5 -5 -5 -5 -5 -5 -5 -6 -6 -6 -6 -6 -7 -7 -7 -7 -7 -7 -7 -8 -8 -8 -8 -8 -8 -8 -8 -8 -8 -8 -8 -8 -8 -8 -8 -8 -8 -7 -7 -7 -7 -7 -7 -7 -7 -7 -6 -6 -6 -6 -6 -6 -6 -5 -5 -5 -5 -5 -5 -5 -5 -5 -5 -5
-5 -6 -6 -6 -6 -6 -6 -6 -5 -5 -5 -5 -5 -5 -5 -5 -5 -5 -6 -6 -6 -6 -6 -7 -7 -7 -7 -7 -7 -8 -8 -8 -8 -8 -8 -8 -8 -8 -8 -8 -8 -8 -8 -8 -8 -8 -8 -7 -7 -7 -7 -7 -7 -7 -7 -6 -6 -6 -6 -6 -6 -6 -6 -5 -5 -5 -5 -5 -5 -5 -5 -5 -5 -5
-5 -5 -6 -6 -6 -6 -6 -5 -5 -5 -5 -5 -5 -5 -5 -5 -5 -5 -6 -6 -6 -6 -6 -7 -7 -7 -7 -7 -7 -8 -8 -8 -8 -8 -8 -8 -8 -8 -8 -8 -8 -8 -8 -8 -8 -8 -8 -7 -7 -7 -7 -7 -7 -7 -6 -6 -6 -6 -6 -6 -6 -6 -5 -5 -5 -5 -5 -5 -5 -5 -5 -5 -5 -5
-5 -5 -5 -6 -6 -6 -5 -5 -5 -5 -5 -5 -5 -4 -5 -5 -5 -5 -5 -6 -6 -6 -6 -6 -7 -7 -7 -7 -7 -7 -8 -8 -8 -8 -8 -8 -8 -8 -8 -8 -8 -8 -8 -8 -8 -8 -8 -7 -7 -7 -7 -7 -6 -6 -6 -6 -6 -6 -6 -6 -6 -6 -5 -5 -5 -5 -5 -5 -5 -5 -5 -5 -5 -5
-5 -5 -5 -5 -5 -5 -5 -5 -5 -5 -5 -5 -5 -5 -5 -5 -5 -5 -5 -6 -6 -6 -6 -6 -7 -7 -7 -8 -8 -8 -8 -8 -8 -8 -8 -8 -8 -8 -8 -8 -8 -8 -8 -8 -8 -8 -8 -7 -7 -7 -6 -6 -6 -6 -6 -6 -6 -6 -6 -6 -6 -6 -6 -5 -5 -5 -5 -5 -5 -5 -5 -5 -5 -5
-5 -5 -5 -5 -5 -5 -5 -5 -5 -5 -5 -5 -5 -5 -5 -5 -5 -5 -5 -6 -6 -6 -6 -6 -7 -7 -7 -8 -8 -8 -8 -8 -8 -8 -8 -8 -8 -8 -8 -8 -8 -8 -8 -7 -7 -7 -7 -7 -7 -7 -6 -6 -6 -6 -6 -6 -6 -6 -6 -6 -6 -6 -6 -5 -5 -5 -5 -5 -5 -5 -5 -5 -5 -5
-5 -5 -5 -5 -5 -5 -5 -5 -5 -5 -5 -5 -5 -5 -5 -5 -5 -5 -5 -5 -6 -6 -6 -6 -7 -7 -7 -7 -8 -8 -8 -8 -8 -8 -8 -8 -8 -8 -8 -8 -8 -8 -7 -7 -7 -7 -7 -7 -7 -7 -6 -6 -6 -6 -6 -6 -6 -6 -6 -6 -6 -6 -6 -5 -5 -5 -5 -5 -5 -5 -5 -5 -5 -5
-5 -5 -5 -5 -5 -5 -5 -5 -5 -5 -5 -5 -5 -5 -5 -5 -5 -5 -5 -5 -5 -6 -6 -6 -7 -7 -7 -7 -7 -8 -8 -8 -8 -8 -8 -8 -8 -8 -8 -8 -8 -8 -7 -7 -7 -7 -7 -7 -7 -6 -6 -6 -6 -6 -6 -6 -6 -6 -6 -6 -6 -6 -6 -5 -5 -5 -5 -5 -5 -5 -5 -5 -5 -5
-5 -5 -5 -5 -5 -5 -5 -5 -5 -5 -5 -5 -5 -5 -5 -5 -5 -5 -5 -5 -5 -6 -6 -6 -7 -7 -7 -7 -8 -8 -8 -8 -8 -8 -8 -8 -8 -8 -8 -8 -8 -8 -7 -7 -7 -7 -7 -7 -6 -6 -6 -6 -6 -6 -6 -6 -6 -6 -6 -6 -6 -6 -6 -5 -5 -5 -5 -5 -5 -5 -5 -5 -5 -5
-5 -5 -5 -5 -5 -5 -5 -5 -5 -5 -5 -5 -5 -5 -5 -5 -5 -5 -5 -5 -5 -6 -6 -6 -7 -7 -7 -7 -8 -8 -8 -8 -8 -8 -9 -8 -8 -8 -8 -8 -8 -8 -7 -7 -7 -7 -7 -7 -6 -6 -6 -6 -6 -6 -6 -6 -6 -6 -6 -6 -6 -6 -6 -5 -5 -5 -5 -5 -4 -4 -5 -5 -5 -5
-5 -5 -5 -5 -5 -5 -5 -5 -5 -5 -5 -6 -6 -6 -5 -6 -6 -5 -5 -5 -6 -6 -6 -6 -7 -7 -7 -7 -8 -8 -8 -8 -8 -9 -9 -9 -9 -9 -8 -8 -8 -8 -7 -7 -7 -7 -7 -7 -6 -6 -6 -6 -6 -6 -6 -6 -6 -6 -6 -6 -6 -6 -6 -5 -5 -5 -5 -4 -4 -4 -4 -5 -5 -5
-5 -5 -5 -5 -5 -5 -5 -5 -5 -5 -5 -6 -6 -6 -6 -6 -6 -6 -6 -6 -6 -6 -6 -6 -7 -7 -7 -7 -8 -8 -8 -8 -8 -9 -9 -9 -9 -9 -9 -8 -8 -8 -7 -7 -7 -7 -7 -7 -6 -6 -6 -6 -6 -6 -6 -6 -6 -6 -6 -6 -6 -6 -6 -5 -5 -5 -5 -4 -4 -4 -4 -4 -4 -4
-5 -5 -5 -5 -5 -5 -5 -5 -5 -5 -6 -6 -6 -6 -6 -6 -6 -6 -6 -6 -6 -6 -6 -7 -7 -7 -7 -7 -7 -7 -8 -8 -8 -9 -9 -9 -9 -9 -9 -9 -8 -8 -8 -7 -7 -7 -7 -7 -6 -6 -6 -6 -6 -6 -6 -6 -6 -6 -5 -5 -5 -5 -5 -5 -5 -5 -5 -5 -4 -4 -4 -4 -4 -4
-5 -5 -5 -5 -5 -5 -5 -5 -5 -6 -6 -6 -6 -6 -6 -6 -6 -6 -6 -6 -6 -6 -6 -7 -7 -7 -7 -7 -7 -7 -8 -8 -8 -8 -8 -9 -9 -9 -9 -9 -9 -8 -8 -7 -7 -7 -7 -6 -6 -6 -6 -6 -6 -6 -6 -6 -6 -6 -6 -5 -5 -5 -5 -5 -5 -5 -5 -5 -5 -4 -4 -4 -4 -4
-5 -5 -6 -6 -5 -5 -5 -5 -6 -6 -6 -6 -6 -6 -6 -6 -6 -6 -6 -6 -6 -6 -6 -7 -7 -7 -7 -7 -7 -7 -8 -8 -8 -8 -8 -8 -9 -9 -9 -9 -9 -8 -8 -8 -7 -7 -7 -6 -6 -6 -6 -6 -6 -6 -6 -6 -6 -6 -6 -6 -5 -5 -5 -5 -5 -5 -5 -5 -5 -4 -4 -4 -4 -4
-5 -5 -6 -6 -6 -6 -6 -6 -6 -6 -6 -7 -7 -7 -6 -6 -6 -6 -6 -6 -6 -7 -7 -7 -7 -7 -7 -7 -8 -8 -8 -8 -8 -8 -8 -9 -9 -9 -9 -9 -9 -8 -8 -8 -8 -7 -7 -6 -6 -6 -6 -6 -6 -6 -6 -6 -6 -6 -6 -6 -6 -5 -5 -5 -5 -5 -5 -5 -5 -4 -5 -5 -5 -4
-5 -5 -6 -6 -6 -6 -6 -6 -6 -6 -6 -7 -7 -7 -7 -7 -7 -7 -7 -7 -7 -7 -7 -7 -7 -7 -7 -8 -8 -8 -8 -8 -8 -8 -8 -9 -9 -9 -9 -9 -8 -8 -8 -8 -8 -7 -6 -6 -6 -6 -6 -6 -6 -6 -5 -6 -6 -6 -6 -6 -6 -6 -5 -5 -5 -5 -5 -5 -5 -5 -5 -5 -5 -5
-6 -6 -6 -6 -6 -6 -6 -6 -6 -6 -6 -7 -7 -7 -7 -7 -7 -7 -7 -7 -7 -7 -7 -7 -8 -8 -8 -8 -8 -8 -8 -8 -8 -8 -8 -9 -9 -9 -9 -9 -9 -8 -8 -8 -8 -7 -7 -6 -6 -6 -6 -6 -6 -6 -5 -5 -6 -6 -5 -5 -6 -5 -5 -5 -5 -5 -5 -5 -5 -5 -5 -5 -5 -5
-6 -6 -6 -6 -6 -6 -6 -6 -6 -6 -7 -7 -7 -7 -7 -7 -7 -7 -7 -7 -7 -7 -7 -8 -8 -8 -8 -8 -8 -8 -8 -8 -8 -9 -9 -9 -9 -9 -9 -9 -9 -8 -8 -8 -8 -7 -7 -7 -7 -6 -6 -6 -6 -6 -6 -6 -6 -6 -5 -5 -5 -5 -5 -5 -5 -5 -5 -5 -5 -5 -5 -5 -5 -5
-6 -6 -6 -6 -6 -6 -6 -6 -6 -7 -7 -7 -7 -7 -7 -7 -7 -7 -7 -7 -7 -7 -8 -8 -8 -8 -8 -8 -8 -8 -8 -8 -9 -9 -9 -9 -9 -9 -9 -9 -9 -8 -8 -8 -8 -8 -8 -7 -7 -7 -6 -6 -6 -6 -6 -6 -6 -6 -5 -5 -5 -5 -5 -5 -5 -5 -5 -5 -5 -5 -5 -5 -5 -5
-5 -5 -6 -6 -6 -6 -6 -7 -7 -7 -7 -7 -7 -7 -7 -8 -8 -8 -8 -7 -7 -7 -8 -8 -8 -8 -8 -8 -8 -8 -9 -9 -9 -9 -9 -9 -9 -8 -8 -8 -8 -8 -8 -8 -8 -8 -8 -8 -7 -7 -6 -6 -6 -6 -6 -6 -6 -6 -5 -5 -5 -5 -5 -5 -5 -5 -5 -5 -5 -5 -5 -5 -5 -5
-6 -6 -6 -6 -7 -7 -7 -7 -7 -7 -7 -7 -7 -7 -7 -8 -8 -8 -8 -7 -7 -7 -8 -8 -8 -8 -8 -8 -8 -8 -8 -8 -8 -8 -8 -8 -8 -8 -8 -8 -8 -8 -8 -8 -8 -8 -8 -8 -7 -7 -7 -6 -6 -6 -6 -6 -6 -6 -6 -5 -5 -5 -5 -5 -5 -5 -5 -5 -5 -5 -5 -5 -5 -5
-6 -6 -6 -7 -7 -7 -7 -7 -7 -7 -7 -7 -7 -7 -8 -8 -8 -8 -7 -7 -8 -8 -8 -8 -8 -8 -8 -8 -8 -8 -8 -8 -8 -8 -8 -8 -8 -8 -8 -8 -8 -8 -8 -8 -7 -7 -7 -7 -7 -7 -7 -7 -6 -6 -6 -6 -6 -6 -6 -6 -5 -5 -5 -5 -5 -5 -5 -5 -5 -5 -6 -6 -5 -5
-6 -6 -7 -7 -7 -7 -7 -7 -7 -7 -7 -7 -7 -8 -8 -8 -7 -7 -7 -7 -8 -8 -8 -8 -8 -8 -8 -8 -8 -8 -8 -8 -8 -8 -8 -8 -8 -8 -7 -8 -8 -8 -8 -8 -7 -7 -7 -7 -7 -7 -7 -7 -7 -6 -6 -6 -6 -6 -6 -6 -6 -6 -6 -6 -6 -6 -6 -6 -6 -6 -6 -6 -6 -6
-6 -7 -7 -7 -7 -7 -7 -7 -7 -6 -6 -7 -7 -7 -7 -7 -7 -7 -7 -8 -8 -8 -8 -8 -8 -8 -8 -8 -8 -8 -8 -8 -8 -8 -8 -8 -8 -8 -8 -8 -8 -8 -8 -8 -7 -7 -7 -7 -7 -7 -7 -7 -7 -7 -7 -7 -7 -6 -6 -6 -6 -6 -6 -6 -6 -6 -6 -6 -6 -6 -6 -6 -6 -6
-6 -7 -7 -7 -7 -7 -7 -7 -7 -6 -6 -7 -6 -6 -6 -7 -7 -7 -7 -7 -8 -8 -8 -8 -8 -8 -8 -8 -7 -8 -8 -8 -8 -8 -8 -8 -8 -8 -8 -8 -8 -8 -8 -8 -8 -7 -7 -7 -7 -7 -7 -7 -7 -7 -7 -7 -7 -7 -7 -6 -6 -6 -6 -6 -6 -6 -6 -6 -6 -6 -6 -6 -6 -6
-6 -6 -7 -7 -7 -7 -7 -7 -7 -7 -7 -7 -6 -6 -6 -7 -7 -8 -8 -8 -8 -8 -8 -8 -8 -8 -8 -7 -7 -8 -8 -8 -8 -8 -7 -8 -8 -8 -8 -8 -8 -8 -8 -8 -8 -7 -7 -7 -7 -7 -7 -7 -7 -7 -7 -7 -7 -7 -7 -7 -7 -7 -7 -7 -7 -7 -7 -7 -7 -7 -7 -7 -6 -6
-7 -7 -7 -8 -8 -7 -7 -8 -7 -7 -7 -7 -7 -7 -7 -8 -8 -8 -8 -8 -8 -8 -8 -8 -8 -8 -8 -8 -8 -8 -8 -8 -8 -8 -8 -8 -8 -8 -8 -8 -8 -8 -8 -7 -7 -7 -7 -7 -7 -7 -7 -7 -7 -7 -7 -7 -7 -7 -7 -7 -7 -7 -7 -7 -7 -7 -7 -7 -7 -7 -7 -7 -7 -7
-8 -8 -8 -8 -8 -7 -7 -7 -7 -7 -7 -7 -7 -8 -8 -8 -8 -8 -8 -8 -8 -8 -8 -8 -8 -8 -8 -8 -8 -8 -8 -8 -8 -8 -8 -8 -8 -8 -8 -8 -8 -8 -8 -7 -7 -7 -7 -7 -7 -7 -7 -7 -7 -7 -7 -7 -7 -7 -8 -8 -8 -8 -8 -8 -7 -7 -7 -7 -7 -7 -7 -7 -7 -7
-8 -7 -7 -7 -7 -7 -7 -7 -7 -7 -7 -7 -7 -8 -8 -8 -8 -8 -8 -8 -8 -8 -8 -8 -8 -8 -8 -8 -8 -8 -8 -8 -8 -8 -8 -8 -8 -8 -8 -8 -8 -8 -7 -7 -7 -7 -7 -7 -7 -7 -7 -7 -7 -7 -7 -7 -7 -7 -8 -8 -8 -8 -8 -8 -8 -8 -8 -8 -7 -7 -8 -8 -7 -8
-7 -7 -7 -7 -7 -7 -6 -6 -6 -6 -7 -7 -7 -8 -8 -8 -8 -8 -8 -8 -8 -8 -8 -8 -8 -8 -8 -8 -8 -8 -8 -8 -8 -8 -8 -8 -8 -8 -8 -8 -8 -8 -7 -7 -7 -7 -7 -7 -7 -7 -7 -7 -7 -7 -7 -7 -7 -7 -7 -8 -8 -8 -8 -8 -8 -8 -8 -8 -8 -8 -8 -8 -8 -8
-7 -7 -7 -7 -7 -7 -7 -6 -6 -6 -6 -7 -7 -8 -8 -8 -8 -8 -8 -8 -8 -8 -8 -8 -8 -8 -8 -8 -8 -8 -8 -8 -8 -8 -8 -8 -8 -8 -8 -8 -8 -8 -7 -7 -7 -7 -7 -7 -7 -7 -7 -7 -8 -8 -7 -7 -7 -7 -7 -8 -8 -8 -8 -8 -8 -8 -8 -8 -8 -8 -9 -9 -9 -9
Height
5967 5968 5968 5969 5969 5969 5970 5970 5971 5971 5972 5971 5972 5972 5972 5972 5972 5972 5972 5972 5972 5972 5972 5973 5973 5973 5973 5973 5973 5973 5973 5972 5971 5970 5969 5968 5967 5966 5965 5964 5962 5961 5960 5958 5956 5954 5952 5950 5948 5946 5944 5941 5939 5937 5935 5932 5930 5928 5925 5923 5920 5917 5915 5912 5910 5907 5904 5901 5898 5895 5892 5890 5887 5883
5968 5968 5969 5969 5969 5970 5970 5971 5971 5972 5972 5972 5972 5972 5972 5973 5973 5973 5973 5973 5973 5973 5973 5973 5973 5973 5974 5974 5974 5974 5973 5973 5971 5970 5969 5968 5967 5966 5965 5964 5962 5961 5959 5958 5956 5954 5952 5950 5948 5946 5944 5941 5939 5937 5935 5933 5931 5929 5926 5923 5921 5918 5915 5913 5910 5907 5904 5902 5899 5896 5893 5890 5887 5883
5968 5969 5969 5969 5969 5970 5970 5971 5971 5972 5972 5972 5972 5972 5973 5973 5973 5973 5973 5973 5973 5973 5973 5974 5974 5974 5974 5974 5974 5974 5973 5972 5971 5970 5969 5968 5968 5967 5966 5965 5963 5961 5960 5958 5956 5955 5953 5951 5948 5946 5944 5942 5940 5938 5936 5934 5932 5929 5927 5924 5921 5919 5916 5913 5911 5908 5905 5902 5899 5896 5893 5890 5886 5883
5969 5969 5969 5969 5970 5970 5970 5971 5971 5972 5972 5972 5972 5972 5973 5973 5973 5973 5974 5974 5974 5974 5974 5974 5974 5974 5974 5974 5974 5974 5973 5972 5971 5970 5970 5969 5969 5968 5967 5965 5963 5962 5960 5958 5956 5955 5953 5951 5949 5947 5945 5943 5941 5939 5937 5935 5933 5930 5927 5925 5922 5919 5916 5914 5911 5908 5905 5902 5899 5896 5893 5889 5886 5884
5969 5969 5969 5969 5970 5970 5970 5970 5971 5971 5972 5972 5972 5972 5973 5973 5973 5973 5974 5974 5974 5974 5974 5974 5974 5974 5974 5974 5974 5973 5972 5972 5971 5971 5970 5970 5969 5968 5967 5965 5963 5962 5961 5959 5957 5955 5953 5951 5950 5948 5946 5944 5942 5940 5938 5936 5933 5930 5927 5925 5922 5919 5916 5914 5911 5908 5905 5902 5899 5896 5892 5889 5886 5883
5969 5969 5969 5969 5969 5969 5970 5970 5970 5971 5971 5971 5972 5972 5972 5973 5973 5973 5973 5973 5973 5973 5974 5974 5974 5974 5974 5974 5973 5973 5973 5972 5972 5972 5971 5970 5969 5968 5966 5965 5964 5963 5962 5960 5958 5956 5954 5952 5950 5948 5947 5945 5943 5941 5938 5936 5933 5930 5927 5925 5922 5919 5916 5914 5911 5908 5905 5902 5898 5895 5892 5889 5886 5883
5969 5969 5969 5969 5969 5969 5969 5969 5970 5970 5970 5971 5971 5972 5972 5972 5972 5972 5973 5973 5973 5973 5973 5973 5973 5974 5974 5974 5973 5973 5973 5973 5972 5972 5971 5970 5968 5967 5966 5965 5964 5963 5962 5961 5959 5957 5955 5953 5951 5949 5947 5945 5943 5941 5939 5936 5934 5931 5928 5925 5922 5919 5916 5913 5911 5908 5905 5901 5898 5895 5892 5889 5886 5882
5969 5969 5969 5969 5969 5969 5969 5969 5969 5969 5969 5970 5970 5971 5971 5971 5971 5972 5972 5972 5972 5972 5972 5972 5973 5973 5973 5973 5973 5973 5973 5972 5972 5971 5971 5969 5968 5967 5966 5966 5965 5963 5962 5961 5959 5957 5956 5953 5951 5949 5947 5945 5943 5941 5938 5936 5933 5930 5927 5924 5921 5918 5916 5913 5910 5907 5904 5901 5898 5895 5891 5888 5885 5882
5968 5968 5968 5968 5968 5968 5968 5968 5968 5968 5969 5969 5969 5970 5970 5970 5970 5971 5971 5971 5971 5971 5971 5972 5972 5972 5972 5972 5972 5972 5972 5972 5971 5971 5970 5969 5968 5966 5966 5966 5965 5963 5962 5961 5959 5957 5955 5953 5951 5949 5947 5945 5943 5940 5938 5935 5932 5930 5926 5923 5920 5918 5915 5913 5909 5906 5903 5900 5897 5894 5891 5888 5884 5881
5967 5967 5967 5967 5967 5968 5968 5968 5968 5968 5968 5968 5968 5968 5969 5969 5969 5970 5970 5970 5970 5970 5970 5970 5970 5971 5971 5971 5971 5971 5972 5971 5971 5970 5970 5969 5967 5966 5966 5965 5964 5962 5960 5960 5958 5956 5955 5953 5951 5948 5946 5944 5942 5940 5937 5935 5932 5929 5926 5923 5920 5918 5915 5912 5909 5906 5903 5900 5897 5894 5890 5887 5884 5880
5966 5966 5966 5966 5966 5966 5966 5967 5967 5967 5967 5967 5967 5967 5967 5968 5968 5968 5968 5969 5969 5969 5969 5969 5969 5969 5970 5970 5970 5970 5971 5971 5970 5969 5969 5968 5967 5966 5965 5965 5964 5962 5959 5958 5957 5955 5953 5952 5950 5948 5945 5943 5941 5939 5937 5934 5931 5928 5925 5923 5921 5918 5916 5912 5909 5906 5903 5900 5896 5893 5890 5886 5883 5879
5964 5965 5965 5965 5965 5965 5965 5965 5966 5966 5966 5966 5966 5966 5966 5966 5966 5967 5967 5967 5967 5968 5968 5968 5968 5968 5968 5969 5969 5969 5969 5969 5969 5969 5968 5968 5966 5965 5964 5964 5963 5961 5958 5956 5956 5953 5951 5950 5948 5946 5944 5942 5940 5938 5935 5932 5930 5927 5925 5923 5921 5918 5916 5913 5909 5906 5903 5899 5895 5892 5889 5885 5882 5878
5963 5963 5963 5963 5964 5964 5964 5964 5964 5964 5964 5964 5964 5964 5965 5965 5965 5965 5965 5965 5965 5966 5966 5966 5966 5966 5967 5967 5967 5967 5968 5968 5968 5968 5967 5967 5966 5964 5963 5962 5962 5961 5957 5955 5954 5952 5950 5948 5947 5945 5943 5941 5939 5936 5934 5931 5929 5927 5925 5923 5920 5918 5915 5912 5909 5905 5902 5898 5895 5891 5888 5884 5881 5877
5962 5962 5962 5962 5962 5962 5962 5962 5963 5963 5963 5963 5963 5963 5963 5963 5963 5963 5964 5963 5964 5964 5964 5964 5965 5965 5965 5965 5965 5965 5966 5966 5966 5966 5965 5965 5965 5963 5962 5961 5961 5960 5957 5954 5953 5951 5949 5947 5946 5944 5943 5940 5938 5935 5933 5931 5929 5927 5924 5922 5919 5916 5914 5911 5907 5904 5901 5897 5894 5890 5887 5883 5880 5877
5960 5961 5961 5960 5960 5961 5961 5961 5961 5961 5962 5962 5962 5962 5962 5962 5962 5962 5962 5962 5962 5962 5962 5962 5963 5963 5963 5963 5963 5963 5963 5964 5964 5964 5963 5963 5963 5962 5961 5960 5959 5958 5956 5954 5953 5951 5948 5946 5945 5943 5941 5939 5937 5935 5933 5930 5928 5925 5923 5920 5917 5915 5912 5909 5906 5903 5900 5897 5893 5890 5886 5882 5879 5876
5959 5959 5959 5959 5959 5959 5959 5959 5959 5960 5960 5960 5960 5960 5960 5960 5960 5960 5960 5960 5960 5960 5960 5960 5961 5961 5961 5961 5961 5961 5961 5961 5961 5961 5961 5961 5960 5959 5959 5958 5958 5957 5955 5954 5952 5950 5947 5945 5943 5942 5940 5938 5936 5934 5932 5929 5927 5924 5921 5918 5915 5913 5910 5907 5905 5902 5899 5895 5892 5888 5885 5881 5878 5875
5956 5957 5957 5957 5957 5957 5957 5957 5958 5958 5958 5958 5958 5958 5958 5958 5958 5958 5958 5958 5958 5958 5958 5958 5958 5959 5959 5958 5958 5959 5959 5958 5959 5959 5958 5958 5958 5957 5956 5956 5956 5955 5953 5952 5951 5949 5947 5944 5942 5940 5939 5937 5935 5933 5930 5928 5925 5922 5920 5917 5914 5911 5908 5906 5903 5901 5897 5894 5890 5887 5884 5880 5877 5874
5954 5955 5955 5955 5955 5955 5956 5956 5956 5956 5956 5956 5956 5956 5956 5956 5956 5956 5956 5956 5956 5956 5956 5956 5956 5956 5957 5956 5955 5956 5956 5956 5956 5956 5956 5956 5955 5955 5954 5953 5953 5952 5951 5950 5949 5947 5946 5943 5941 5939 5938 5936 5934 5932 5929 5926 5924 5921 5918 5915 5912 5909 5906 5904 5902 5899 5896 5892 5889 5886 5882 5879 5876 5873
5952 5952 5953 5953 5953 5954 5954 5954 5954 5954 5954 5954 5955 5954 5954 5954 5954 5954 5954 5954 5954 5954 5954 5954 5953 5953 5954 5953 5953 5953 5953 5953 5953 5953 5953 5953 5953 5953 5952 5951 5950 5950 5948 5947 5946 5945 5944 5942 5939 5937 5936 5935 5933 5930 5928 5925 5923 5920 5917 5914 5910 5907 5905 5902 5900 5897 5894 5891 5888 5885 5881 5877 5874 5871
5949 5949 5950 5950 5951 5951 5952 5952 5952 5952 5952 5952 5953 5952 5952 5952 5952 5952 5952 5951 5952 5952 5952 5951 5951 5951 5950 5951 5950 5950 5950 5950 5951 5951 5951 5951 5951 5951 5950 5948 5948 5947 5946 5945 5944 5942 5941 5940 5937 5936 5934 5933 5931 5929 5927 5924 5921 5919 5916 5913 5909 5906 5903 5901 5899 5896 5893 5890 5887 5883 5880 5876 5873 5870
5946 5946 5947 5947 5948 5948 5949 5949 5949 5949 5950 5950 5950 5950 5950 5949 5949 5949 5949 5949 5949 5949 5949 5948 5948 5948 5948 5948 5948 5948 5948 5948 5948 5949 5948 5948 5948 5948 5947 5946 5945 5945 5944 5943 5941 5940 5939 5937 5935 5933 5932 5931 5930 5927 5925 5922 5920 5917 5914 5911 5908 5905 5902 5899 5897 5894 5891 5889 5886 5882 5879 5875 5872 5869
5943 5944 5944 5944 5945 5945 5945 5945 5946 5946 5947 5947 5947 5947 5947 5947 5947 5946 5945 5946 5946 5946 5946 5946 5946 5946 5945 5945 5945 5945 5945 5945 5946 5946 5946 5945 5945 5944 5944 5943 5943 5942 5941 5940 5939 5938 5937 5935 5933 5931 5929 5928 5927 5925 5923 5920 5918 5915 5912 5909 5906 5903 5900 5897 5895 5893 5890 5887 5884 5881 5878 5875 5871 5868
5940 5940 5941 5941 5942 5942 5942 5942 5942 5943 5944 5944 5944 5944 5944 5944 5944 5942 5942 5942 5943 5943 5943 5943 5943 5943 5943 5943 5943 5942 5942 5942 5943 5943 5943 5942 5942 5941 5940 5940 5939 5939 5939 5938 5936 5935 5935 5933 5931 5930 5928 5926 5924 5922 5921 5919 5917 5915 5911 5908 5905 5902 5899 5896 5893 5891 5888 5886 5883 5880 5878 5874 5871 5867
5936 5936 5937 5938 5938 5938 5938 5938 5939 5940 5941 5941 5941 5941 5941 5941 5940 5939 5939 5940 5940 5940 5940 5940 5940 5940 5940 5940 5940 5939 5939 5939 5940 5940 5939 5938 5938 5938 5937 5936 5936 5936 5935 5935 5933 5933 5932 5931 5929 5928 5927 5925 5923 5920 5918 5916 5914 5912 5910 5907 5904 5901 5898 5895 5892 5890 5887 5884 5882 5879 5877 5874 5871 5867
5932 5933 5933 5933 5933 5934 5934 5934 5935 5936 5937 5937 5938 5938 5938 5937 5936 5936 5936 5936 5936 5937 5937 5937 5937 5937 5937 5937 5936 5936 5936 5937 5937 5936 5936 5935 5935 5934 5934 5933 5932 5932 5931 5931 5930 5929 5929 5927 5926 5925 5924 5923 5921 5919 5916 5914 5911 5909 5907 5905 5902 5899 5896 5894 5891 5888 5886 5883 5880 5878 5876 5873 5870 5867
5928 5928 5929 5929 5929 5929 5929 5930 5931 5932 5932 5933 5934 5935 5934 5934 5933 5933 5932 5932 5933 5933 5933 5934 5934 5934 5933 5933 5933 5934 5934 5934 5934 5933 5933 5932 5931 5931 5930 5929 5929 5928 5927 5927 5926 5926 5925 5924 5923 5922 5920 5919 5917 5916 5914 5912 5909 5906 5903 5902 5899 5897 5894 5892 5889 5887 5884 5881 5879 5876 5874 5872 5870 5866
5924 5923 5924 5924 5924 5924 5925 5926 5927 5927 5928 5929 5930 5930 5930 5930 5930 5929 5929 5929 5929 5930 5930 5930 5930 5930 5930 5931 5931 5931 5931 5931 5931 5930 5930 5929 5928 5927 5926 5926 5925 5924 5923 5923 5922 5922 5921 5920 5919 5918 5917 5915 5914 5912 5911 5909 5907 5904 5901 5899 5897 5894 5892 5890 5887 5885 5882 5880 5877 5875 5872 5870 5868 5866
5919 5919 5919 5919 5920 5920 5921 5922 5922 5923 5924 5925 5926 5925 5925 5926 5926 5926 5925 5925 5925 5926 5927 5927 5927 5927 5927 5928 5928 5928 5928 5928 5928 5927 5927 5926 5925 5924 5923 5922 5922 5920 5919 5919 5919 5917 5916 5916 5915 5914 5913 5911 5910 5908 5907 5906 5905 5903 5900 5897 5895 5892 5890 5887 5885 5883 5880 5878 5875 5873 5871 5868 5866 5864
5915 5915 5915 5915 5916 5916 5917 5917 5918 5920 5921 5921 5921 5921 5921 5922 5922 5922 5922 5922 5922 5923 5924 5925 5925 5925 5925 5925 5925 5924 5924 5924 5924 5924 5923 5922 5921 5920 5919 5919 5918 5917 5916 5916 5915 5913 5912 5912 5911 5910 5909 5908 5906 5905 5903 5902 5901 5900 5898 5896 5893 5891 5888 5886 5883 5881 5878 5876 5873 5871 5869 5867 5864 5862
5911 5911 5911 5911 5911 5912 5912 5913 5915 5916 5917 5917 5917 5917 5917 5918 5918 5918 5918 5918 5919 5921 5922 5922 5922 5922 5922 5921 5921 5921 5921 5920 5920 5920 5919 5918 5917 5916 5915 5915 5914 5913 5913 5912 5911 5909 5908 5908 5907 5906 5905 5903 5902 5900 5899 5898 5897 5896 5895 5893 5890 5888 5886 5883 5881 5878 5876 5874 5871 5869 5867 5865 5862 5860
5906 5906 5906 5906 5906 5907 5908 5909 5911 5912 5912 5913 5913 5913 5913 5913 5913 5913 5914 5915 5917 5918 5918 5919 5919 5918 5918 5918 5917 5917 5917 5916 5916 5916 5915 5914 5913 5912 5911 5911 5910 5909 5909 5908 5906 5904 5904 5904 5903 5901 5900 5899 5898 5897 5895 5894 5893 5892 5890 5889 5886 5884 5882 5880 5878 5875 5873 5871 5869 5866 5864 5862 5859 5857
5901 5901 5902 5902 5903 5904 5905 5906 5907 5908 5908 5908 5908 5908 5908 5908 5908 5909 5910 5912 5913 5913 5914 5915 5915 5914 5914 5914 5913 5913 5913 5913 5912 5911 5910 5909 5908 5907 5906 5906 5905 5905 5905 5904 5902 5900 5900 5899 5898 5897 5896 5894 5893 5892 5891 5889 5888 5887 5886 5884 5882 5880 5878 5876 5874 5872 5870 5867 5865 5863 5861 5858 5856 5854
5896 5898 5899 5899 5900 5901 5901 5902 5903 5903 5903 5903 5902 5902 5902 5902 5903 5904 5906 5907 5908 5909 5910 5911 5911 5911 5910 5910 5910 5911 5910 5909 5908 5906 5905 5905 5903 5902 5902 5901 5900 5900 5900 5899 5897 5896 5896 5895 5894 5892 5891 5890 5888 5887 5886 5885 5884 5883 5881 5880 5878 5876 5874 5872 5870 5868 5865 5863 5861 5859 5857 5855 5853 5850
5894 5896 5896 5897 5897 5898 5898 5899 5898 5898 5898 5897 5897 5897 5896 5896 5897 5899 5901 5902 5903 5905 5906 5907 5907 5906 5906 5906 5906 5907 5906 5905 5903 5901 5901 5900 5899 5898 5897 5896 5895 5896 5896 5894 5893 5893 5892 5891 5890 5888 5886 5885 5884 5883 5881 5880 5879 5878 5876 5875 5873 5871 5869 5867 5866 5864 5862 5859 5857 5855 5854 5852 5849 5847
5891 5893 5893 5893 5894 5894 5894 5894 5894 5893 5893 5892 5891 5890 5889 5890 5892 5893 5894 5896 5899 5900 5901 5902 5901 5900 5900 5900 5900 5900 5900 5899 5898 5897 5896 5895 5894 5893 5892 5891 5890 5891 5891 5890 5888 5888 5887 5886 5885 5884 5882 5880 5879 5878 5877 5875 5873 5872 5871 5869 5868 5866 5864 5863 5861 5859 5857 5855 5853 5851 5849 5847 5845 5843
5888 5888 5889 5890 5890 5891 5891 5891 5890 5889 5888 5886 5885 5884 5883 5884 5885 5885 5888 5893 5897 5897 5897 5897 5897 5896 5896 5896 5896 5896 5895 5895 5894 5893 5892 5890 5888 5886 5885 5885 5885 5886 5886 5885 5883 5883 5882 5881 5880 5879 5877 5876 5874 5873 5871 5870 5868 5867 5865 5863 5862 5861 5859 5858 5856 5855 5853 5850 5848 5846 5844 5843 5841 5838
5883 5883 5884 5884 5885 5885 5884 5884 5882 5881 5880 5879 5877 5876 5876 5878 5880 5884 5889 5894 5894 5893 5892 5892 5892 5892 5892 5892 5892 5892 5892 5891 5890 5888 5886 5884 5883 5881 5880 5880 5880 5880 5880 5879 5878 5878 5877 5876 5875 5874 5872 5871 5869 5868 5866 5865 5863 5862 5860 5858 5857 5855 5854 5852 5851 5849 5847 5846 5843 5841 5839 5837 5836 5834
5878 5878 5878 5879 5879 5880 5879 5878 5877 5877 5876 5875 5873 5873 5875 5877 5880 5884 5889 5890 5888 5887 5887 5887 5887 5887 5887 5887 5887 5887 5887 5886 5885 5883 5880 5879 5878 5878 5877 5877 5876 5875 5874 5873 5873 5872 5872 5871 5870 5868 5867 5866 5864 5863 5862 5860 5858 5857 5855 5853 5852 5850 5849 5847 5845 5844 5842 5840 5838 5836 5834 5832 5830 5828
5873 5874 5874 5876 5878 5881 5881 5880 5880 5879 5878 5876 5875 5876 5877 5876 5876 5879 5883 5884 5883 5883 5883 5883 5882 5881 5881 5881 5882 5882 5882 5881 5880 5878 5875 5873 5873 5872 5872 5871 5871 5869 5868 5867 5867 5867 5866 5865 5864 5863 5862 5861 5860 5858 5857 5855 5854 5852 5850 5848 5846 5844 5843 5841 5840 5838 5836 5834 5832 5831 5828 5826 5824 5822
5871 5871 5872 5873 5875 5877 5878 5877 5875 5874 5873 5872 5872 5873 5872 5872 5872 5874 5877 5878 5879 5879 5878 5878 5877 5876 5876 5876 5877 5877 5877 5876 5874 5872 5870 5868 5867 5866 5865 5865 5864 5863 5862 5862 5862 5861 5861 5860 5859 5858 5857 5856 5855 5853 5852 5850 5848 5847 5845 5843 5841 5839 5837 5835 5834 5832 5830 5828 5826 5825 5823 5821 5818 5816
5867 5867 5867 5868 5869 5869 5870 5870 5870 5870 5869 5867 5867 5867 5868 5869 5871 5872 5872 5872 5874 5874 5874 5874 5873 5872 5872 5872 5871 5871 5871 5870 5868 5866 5865 5863 5862 5860 5859 5858 5858 5857 5857 5857 5856 5856 5855 5855 5854 5853 5852 5851 5850 5848 5847 5845 5843 5841 5839 5837 5835 5833 5831 5829 5827 5826 5824 5822 5821 5818 5817 5815 5813 5811
5862 5861 5861 5861 5862 5862 5864 5865 5866 5866 5866 5865 5864 5864 5865 5866 5868 5869 5868 5868 5869 5869 5869 5869 5869 5868 5867 5866 5865 5865 5864 5864 5862 5861 5860 5859 5857 5856 5854 5853 5853 5853 5852 5852 5851 5850 5850 5849 5848 5847 5847 5846 5844 5842 5841 5839 5837 5835 5834 5831 5829 5827 5824 5822 5821 5819 5817 5816 5814 5812 5810 5808 5806 5804
5857 5856 5856 5856 5857 5857 5858 5861 5861 5861 5861 5861 5861 5862 5862 5862 5864 5865 5865 5865 5865 5865 5865 5864 5864 5863 5862 5861 5860 5860 5859 5858 5857 5856 5855 5854 5853 5851 5850 5849 5848 5848 5848 5847 5846 5845 5844 5843 5842 5841 5840 5839 5837 5836 5834 5832 5830 5829 5827 5825 5823 5821 5818 5816 5814 5813 5811 5809 5807 5805 5804 5801 5799 5797
5853 5853 5853 5853 5852 5851 5852 5854 5854 5853 5854 5855 5856 5857 5857 5856 5857 5858 5859 5859 5859 5859 5859 5859 5858 5858 5857 5855 5854 5854 5853 5852 5851 5850 5849 5848 5847 5846 5846 5845 5844 5843 5843 5842 5841 5840 5838 5837 5836 5835 5833 5832 5830 5828 5827 5825 5823 5821 5820 5818 5816 5814 5812 5810 5808 5806 5804 5802 5800 5798 5796 5794 5792 5789
5849 5850 5850 5848 5847 5846 5846 5846 5846 5846 5847 5848 5850 5851 5851 5851 5851 5851 5851 5852 5853 5853 5853 5853 5852 5851 5850 5848 5847 5847 5846 5844 5844 5844 5843 5842 5841 5840 5840 5840 5839 5838 5837 5836 5835 5834 5832 5831 5829 5828 5826 5825 5823 5821 5819 5818 5816 5814 5812 5810 5808 5807 5806 5804 5801 5799 5797 5794 5792 5790 5789 5786 5784 5781
Wind_Speed
9 10 10 11 11 11 11 11 11 11 11 10 10 9 9 9 10 10 10 10 10 10 9 8 7 6 6 6 6 6 7 7 10 12 13 13 14 15 16 18 19 20 21 23 24 25 26 27 29 30 31 32 33 34 34 35 35 36 36 37 38 38 38 39 39 39 40 40 40 40 40 41 42 42
9 9 9 9 10 10 11 11 11 11 10 10 9 8 8 8 9 9 9 9 9 9 8 7 5 5 4 4 4 5 5 6 9 11 11 13 14 15 16 17 19 21 23 24 25 25 26 28 29 30 31 32 33 33 34 34 35 35 35 36 36 37 37 38 38 38 39 39 39 39 39 40 41 41
8 8 8 8 8 9 10 10 11 11 11 10 8 8 7 8 8 8 8 8 8 9 8 7 5 4 3 2 3 3 4 7 10 9 10 11 12 13 14 16 18 21 23 24 25 25 26 27 28 29 30 31 32 32 32 33 33 33 33 34 35 35 36 36 37 37 37 38 38 39 39 40 40 41
7 7 7 7 7 8 9 10 11 11 11 10 9 8 7 7 7 7 7 7 8 8 8 7 6 5 3 1 2 2 5 8 7 6 7 9 10 12 13 15 19 21 22 24 25 26 26 27 27 28 28 29 30 30 30 30 31 31 32 32 33 34 35 35 36 36 36 37 38 38 39 39 39 40
5 5 5 5 6 7 8 9 10 11 11 11 11 10 9 8 7 7 7 7 7 8 8 7 6 5 3 1 1 2 5 5 3 4 6 8 9 11 14 17 20 20 21 23 25 26 26 26 26 27 27 28 29 29 29 30 30 31 31 32 33 34 34 35 35 35 35 36 37 38 39 39 39 39
4 4 4 4 5 5 6 8 9 11 12 12 12 11 10 9 8 8 7 7 7 8 8 8 7 5 4 2 0 1 1 1 2 4 6 7 9 12 15 17 19 20 21 22 23 24 25 25 25 25 26 27 27 28 28 29 29 30 30 31 32 34 34 35 35 35 35 36 36 37 38 38 39 39
4 4 4 5 5 5 5 6 8 10 11 13 13 13 12 11 10 9 8 7 7 8 9 9 8 7 5 4 2 2 3 3 3 4 6 8 10 13 14 15 17 20 21 21 22 22 23 23 24 24 25 26 26 27 28 28 28 28 29 30 32 34 34 35 35 35 35 36 37 37 38 38 38 39
4 4 5 5 6 6 7 7 7 8 10 12 14 14 14 13 12 12 10 9 8 9 10 10 9 8 7 5 4 4 4 4 4 5 6 9 11 13 13 14 16 19 20 21 21 22 22 23 23 23 24 25 26 27 28 28 29 29 29 31 33 35 35 35 35 35 36 36 37 38 38 38 38 38
5 5 5 6 7 8 8 8 8 8 9 10 13 15 16 15 14 14 13 11 10 10 11 11 11 10 8 7 6 6 6 5 6 6 7 8 11 12 13 14 17 19 21 20 21 22 22 22 22 23 24 24 26 27 28 29 29 30 31 32 34 35 36 36 36 36 36 36 37 38 38 38 38 39
6 6 6 7 8 9 9 9 10 10 10 10 11 13 16 17 17 16 15 14 13 12 12 12 12 12 10 10 9 8 8 8 7 8 8 8 10 12 14 16 18 20 22 21 21 22 22 22 23 23 24 25 26 27 28 28 29 30 32 33 34 35 35 35 35 35 35 36 36 37 38 38 39 39
8 8 8 8 9 10 10 10 11 11 11 11 11 11 13 16 18 18 17 16 16 15 14 13 13 13 13 12 12 11 11 10 9 9 9 9 11 13 15 16 18 21 23 23 22 23 23 24 24 24 25 25 26 26 27 28 29 30 32 33 33 34 34 34 33 33 34 34 35 36 37 38 39 39
9 9 10 10 11 12 11 11 11 12 12 12 12 11 11 14 17 19 19 18 18 17 16 15 14 15 15 15 14 13 12 12 11 10 10 10 12 14 17 17 18 20 24 25 24 25 25 26 26 26 26 26 26 27 28 29 30 31 32 32 32 33 33 32 32 32 33 34 35 36 37 38 39 39
10 10 11 12 13 13 13 13 12 13 13 13 13 12 12 13 15 18 20 20 20 19 18 17 16 16 16 16 16 15 14 14 14 13 13 13 13 16 19 19 18 20 24 26 26 26 27 27 27 27 27 27 27 28 29 30 31 31 31 31 32 32 32 31 31 32 33 34 35 36 37 38 39 40
11 12 12 13 13 14 14 14 14 14 14 14 14 13 13 14 15 16 19 22 22 21 20 19 18 18 17 18 18 18 17 16 16 15 16 15 16 18 20 20 20 21 24 26 27 27 27 28 28 28 27 27 27 28 29 29 30 30 31 32 32 32 32 31 31 31 32 33 34 36 37 38 39 40
12 13 13 13 13 14 15 15 15 15 15 15 15 15 14 15 15 16 18 21 23 23 22 21 20 19 19 19 19 20 19 19 18 18 18 17 17 19 20 21 21 22 23 26 27 27 27 28 28 28 27 27 27 28 28 29 30 31 32 33 33 33 32 31 31 32 32 33 34 35 37 39 40 40
12 13 14 14 14 14 14 15 15 15 15 15 16 16 16 15 16 17 18 20 22 23 23 23 22 21 20 21 21 21 21 21 21 20 19 19 19 21 22 22 22 23 24 25 26 27 27 28 29 28 28 28 27 27 28 29 30 31 32 33 34 33 32 31 32 32 33 34 35 37 38 39 40 41
14 14 15 16 15 15 15 15 15 15 16 16 16 17 17 17 17 18 19 20 21 23 24 24 24 23 22 22 23 22 22 22 22 21 21 21 22 23 24 24 23 24 25 26 26 26 27 28 29 28 27 27 27 27 28 29 30 31 32 34 34 34 33 32 32 33 34 35 36 38 39 40 40 40
15 15 16 17 17 16 15 15 15 15 15 16 16 18 18 19 18 19 19 20 21 22 23 24 25 25 24 24 24 24 23 23 23 23 23 24 24 25 26 26 25 25 26 27 27 26 27 28 29 28 27 27 27 27 28 30 30 31 32 34 34 34 33 33 33 33 34 35 37 39 40 40 39 38
18 17 17 18 19 18 18 17 16 16 16 16 16 18 20 20 20 20 21 20 21 22 23 25 26 26 25 25 25 25 25 25 25 25 25 26 26 27 28 28 27 26 27 27 27 27 27 28 29 28 27 27 28 28 28 29 30 31 32 34 34 34 33 33 33 34 35 36 38 40 40 39 37 36
22 20 19 19 20 20 20 20 19 18 18 17 17 18 20 21 22 22 22 22 21 22 23 25 26 27 27 27 26 27 27 27 26 26 27 28 27 27 28 28 28 28 28 28 28 28 28 28 29 29 28 27 28 28 29 29 30 31 32 34 34 34 33 32 32 34 36 37 39 39 37 36 35 34
26 23 21 21 21 21 21 22 21 21 20 19 19 19 20 21 22 23 24 24 23 22 23 25 26 27 28 28 27 28 28 28 28 27 28 29 29 28 28 29 29 29 28 28 28 28 28 28 29 29 29 28 28 28 29 30 30 31 32 33 34 34 33 32 32 34 37 38 38 36 35 34 34 34
29 26 24 24 23 23 23 23 22 22 21 20 20 20 20 21 22 24 25 25 24 24 24 24 26 27 28 29 29 29 29 29 28 28 28 29 29 29 29 29 29 29 29 28 28 28 28 28 29 29 29 29 29 29 29 30 30 31 32 33 34 34 33 32 33 35 37 37 36 34 32 32 33 35
31 30 28 27 25 25 25 24 23 22 21 21 21 21 21 20 22 25 26 26 25 25 24 24 25 27 28 29 29 30 30 29 28 28 28 29 29 29 30 30 30 29 29 28 29 28 27 28 29 28 28 29 30 30 30 30 30 30 31 32 33 33 33 33 34 35 36 35 33 31 31 31 33 34
32 32 31 30 28 28 27 26 25 24 22 21 22 22 21 21 24 26 26 25 25 26 26 26 26 27 28 29 30 31 31 30 29 29 29 29 29 29 30 30 30 30 29 29 29 29 28 28 29 28 27 28 29 30 30 30 30 30 30 31 33 33 33 33 34 35 34 33 31 30 30 30 32 32
33 33 33 32 32 31 30 28 27 25 24 22 22 22 23 24 26 27 26 26 26 26 27 27 27 28 29 30 31 31 30 30 30 30 30 30 30 31 31 31 30 30 30 30 29 29 29 29 29 29 28 28 28 29 30 30 30 30 30 31 32 32 32 32 33 33 33 31 31 30 30 30 30 31
32 34 34 34 34 34 32 30 29 28 26 24 23 24 25 26 27 27 27 28 27 27 28 29 29 30 30 30 30 30 30 30 30 30 31 31 31 32 33 32 31 31 31 30 30 30 30 30 30 29 28 28 29 29 29 30 30 31 31 31 32 32 32 32 32 32 32 31 30 30 30 29 29 30
34 35 36 36 36 36 34 32 31 31 29 26 25 26 27 27 28 28 29 29 29 29 29 30 30 31 31 30 29 29 29 30 30 31 31 31 32 33 33 32 32 32 31 31 30 31 31 30 30 29 29 29 29 29 29 29 30 31 32 32 32 32 32 32 32 32 32 31 30 30 29 29 28 29
34 36 37 38 38 37 36 35 34 33 31 29 28 29 29 28 28 29 30 30 31 30 30 30 31 32 32 30 30 30 30 30 31 31 32 32 33 33 33 32 32 32 31 31 31 32 32 31 30 30 30 30 30 30 30 30 30 31 32 32 33 32 32 32 32 31 31 31 30 30 29 28 28 28
35 36 38 39 39 38 38 37 36 34 32 31 31 31 31 30 29 30 31 31 31 31 30 30 30 31 31 31 31 31 30 30 31 32 32 33 33 34 33 33 32 32 31 31 32 32 32 31 30 31 31 30 31 31 31 31 31 31 32 33 33 33 33 32 31 31 31 30 29 29 29 28 28 28
36 36 37 39 40 40 40 39 37 35 34 33 33 32 32 31 31 32 32 32 31 30 30 30 30 31 32 32 32 31 31 32 32 32 33 34 34 35 34 33 32 32 31 31 32 33 32 31 31 32 32 31 32 32 32 33 33 33 34 34 35 34 34 33 32 31 30 30 29 29 29 29 29 29
37 37 38 40 41 41 41 39 37 36 35 35 34 34 33 33 33 33 33 32 30 30 30 30 30 31 32 32 32 31 31 32 33 33 33 34 35 34 34 32 32 32 31 31 33 33 33 32 33 33 33 33 34 33 34 34 35 35 36 36 36 36 36 35 33 32 31 30 30 30 30 30 31 31
39 39 40 41 41 40 39 38 37 37 36 35 35 35 34 34 34 34 33 31 31 31 30 29 29 31 32 32 32 32 32 32 34 34 35 35 35 34 33 32 31 31 31 32 33 35 35 35 35 34 34 35 35 35 35 36 36 37 37 38 38 38 38 37 36 34 33 32 32 32 32 32 32 33
40 39 39 39 39 39 39 38 37 37 36 36 36 36 35 35 35 34 33 32 32 31 30 29 29 30 31 32 32 32 32 33 34 35 35 35 35 34 33 32 32 31 31 32 34 36 37 37 37 37 37 37 37 37 37 37 37 38 38 39 39 40 40 39 39 37 36 35 34 34 34 33 34 35
37 36 37 37 38 38 38 38 38 38 37 37 37 36 37 37 36 34 33 32 31 30 29 28 29 31 32 33 33 33 34 36 37 38 38 38 37 36 34 34 33 31 32 34 36 37 38 39 39 39 39 39 39 39 39 39 39 39 39 40 40 41 41 41 40 39 39 38 37 36 36 35 35 36
35 35 36 36 37 38 38 38 39 39 38 37 37 38 38 37 35 34 32 29 27 27 27 27 29 32 33 34 34 34 34 34 35 36 36 37 37 37 36 35 35 34 34 36 37 38 39 40 40 40 39 39 40 40 40 41 40 40 41 41 42 43 43 43 42 41 40 39 39 38 38 38 37 38
34 34 35 36 37 38 38 39 39 39 39 38 38 39 39 36 34 34 31 26 25 26 27 27 28 31 32 33 33 33 32 32 34 35 36 36 38 39 38 36 35 35 37 38 39 39 40 41 41 41 41 41 41 42 42 42 42 43 43 43 44 44 45 45 44 43 42 42 41 41 41 40 40 40
33 35 36 37 38 40 40 41 42 41 40 40 41 40 38 35 34 33 31 27 27 28 29 30 32 32 32 33 34 35 35 36 37 38 39 39 40 42 43 42 40 38 40 42 42 41 41 42 42 42 42 42 42 42 42 43 43 44 44 45 46 47 47 47 47 45 44 44 44 43 43 43 42 42
34 36 37 38 40 42 43 43 43 43 41 42 43 41 36 32 30 28 27 27 29 30 31 33 34 34 33 32 32 33 35 36 37 39 42 43 43 42 43 44 43 40 40 42 43 43 43 43 43 42 41 41 41 42 42 43 43 44 44 46 47 49 49 49 48 47 46 46 46 45 45 45 45 45
34 36 37 38 39 40 41 40 40 40 41 42 41 36 31 29 29 26 24 26 30 33 34 34 35 35 34 33 32 33 35 37 38 40 41 42 42 41 40 40 41 40 40 41 44 45 45 44 43 42 41 41 42 43 43 44 44 44 45 47 49 50 51 51 50 49 48 48 48 47 47 47 47 47
34 35 36 37 37 37 39 40 40 40 39 40 38 32 27 26 27 27 27 28 31 34 35 35 35 36 36 36 37 37 38 38 37 36 35 36 39 40 38 38 40 41 41 42 45 46 45 44 42 42 42 42 43 45 45 45 45 46 47 48 50 51 52 52 52 51 50 50 50 50 49 49 50 50
34 35 36 37 38 38 39 41 41 39 38 37 36 32 28 26 27 30 32 34 34 35 35 35 36 37 39 39 40 41 40 38 37 37 36 37 39 38 37 37 39 41 42 43 44 44 44 43 43 43 44 44 46 46 46 46 47 47 48 50 51 52 53 54 53 53 52 52 52 52 51 51 52 53
36 38 39 39 39 38 39 40 39 38 37 37 36 34 32 31 31 33 35 36 36 36 36 37 38 40 41 42 43 43 42 40 39 38 38 39 39 39 37 38 39 41 42 43 43 42 42 43 44 45 46 47 48 48 48 49 50 50 50 51 52 53 54 54 54 55 55 55 54 54 53 54 54 55
38 40 40 39 39 39 39 38 36 36 36 37 38 37 36 36 36 36 37 37 37 38 39 40 41 42 44 45 45 44 42 40 40 40 40 40 39 39 39 40 41 42 43 43 43 43 44 45 46 47 48 49 50 51 51 52 53 53 53 53 53 53 54 55 56 56 56 57 57 56 56 56 57 58
38 39 40 39 40 40 37 34 33 33 35 38 39 39 39 39 39 39 40 40 40 41 42 43 43 45 46 47 46 45 43 42 41 41 41 40 40 39 39 40 42 43 44 45 45 45 46 48 49 49 51 52 53 54 55 55 56 56 57 57 56 56 55 56 57 58 58 59 59 59 59 59 60 61
36 36 38 39 40 39 38 37 37 38 38 40 41 40 41 42 43 43 44 43 43 44 45 45 46 46 47 47 47 46 44 44 44 43 42 41 40 40 40 40 41 43 44 45 45 47 49 50 51 51 52 53 54 56 57 57 58 59 60 60 60 59 58 58 58 59 60 61 62 62 61 62 63 64
Wind_Direction
137 136 136 135 133 129 125 124 128 132 134 132 131 130 127 126 126 125 124 124 127 128 125 119 107 97 84 73 69 66 62 53 48 47 42 35 31 26 20 17 19 21 22 22 18 16 15 14 13 13 13 12 12 11 10 9 8 7 7 8 8 7 6 5 4 3 2 2 2 1 0 359 359 360
140 141 142 142 142 140 137 134 135 139 141 141 142 141 136 134 134 132 131 133 138 141 140 134 118 102 89 75 68 67 58 44 44 45 35 24 22 19 13 13 15 15 15 16 14 12 12 12 11 10 10 10 10 9 8 6 5 5 5 6 6 6 5 3 2 0 359 359 359 358 358 357 357 357
146 147 149 150 152 152 151 150 147 147 149 151 156 156 151 148 146 143 143 146 152 156 157 153 145 138 124 87 68 60 39 34 39 37 25 15 12 10 6 10 15 12 9 8 8 8 9 10 8 7 7 7 7 6 5 3 2 2 3 4 4 3 2 1 359 357 356 356 355 355 355 354 355 355
152 155 158 161 164 165 166 166 165 162 160 163 168 173 171 165 160 157 158 161 165 170 174 173 172 171 157 105 65 38 30 34 34 19 8 5 2 1 2 9 13 10 4 2 3 4 6 6 5 4 4 4 4 2 2 1 359 359 1 2 2 1 359 358 356 355 354 353 353 353 353 353 353 353
164 169 172 173 178 180 180 181 183 181 177 175 178 185 188 184 179 176 174 174 177 182 187 189 192 191 179 153 71 31 36 36 12 345 351 352 350 352 0 8 8 3 0 359 359 360 2 2 1 1 1 1 0 360 359 358 357 357 358 360 360 359 357 355 354 353 352 352 352 351 351 351 351 351
183 193 198 200 201 201 198 195 196 198 195 191 190 193 197 198 199 197 190 185 188 193 197 202 207 209 207 207 200 61 73 277 299 326 336 336 339 350 3 7 359 353 355 355 355 356 358 358 357 357 357 357 357 357 357 356 355 355 356 357 358 357 356 354 352 352 351 351 351 351 350 350 350 351
195 206 219 227 229 229 224 217 211 210 210 207 203 202 204 206 209 211 206 200 199 203 208 213 217 220 221 221 219 216 228 253 296 318 323 327 337 351 3 1 348 344 348 349 349 352 354 354 354 354 354 354 354 355 355 355 354 354 355 356 356 356 354 353 351 351 352 352 351 350 349 349 349 350
209 214 221 232 239 241 240 239 234 227 222 219 216 213 212 211 213 217 218 215 211 212 216 220 225 229 231 231 232 235 247 267 292 303 315 328 336 346 353 347 336 335 339 342 344 346 350 352 351 351 351 350 351 353 354 353 353 353 355 356 356 355 353 351 351 351 351 351 350 349 348 348 349 350
228 231 231 236 242 244 245 246 246 244 239 231 226 223 220 218 218 220 223 224 222 222 224 226 231 235 237 238 241 241 249 263 278 290 308 325 331 334 337 332 326 326 330 335 338 340 346 349 349 349 349 349 350 351 352 351 351 353 355 356 355 353 351 350 350 350 350 349 348 348 347 347 347 348
239 241 242 246 248 248 248 249 250 251 250 247 240 233 228 225 223 224 226 227 228 229 230 231 234 236 238 240 243 245 250 257 270 287 304 318 320 319 320 320 320 320 323 329 333 336 341 346 347 348 347 347 349 349 349 349 350 353 355 355 353 350 348 347 347 347 347 347 347 346 346 346 346 346
247 249 248 252 256 255 252 251 252 254 255 254 253 246 238 232 229 229 231 231 232 234 234 235 236 238 239 240 242 246 251 256 266 283 297 305 308 307 308 312 316 318 320 325 330 333 338 343 345 346 346 346 347 347 347 348 350 353 354 352 349 347 345 344 344 344 345 345 346 346 346 345 345 345
249 253 254 254 257 260 259 255 253 255 257 258 258 256 250 243 236 233 234 236 237 237 238 239 240 241 242 242 243 245 249 254 260 268 276 284 294 299 301 307 314 316 318 323 328 331 336 340 342 343 344 345 346 346 346 347 350 352 351 348 346 344 342 341 342 343 344 344 345 345 345 345 344 344
248 254 257 257 257 260 262 259 255 253 255 259 261 260 256 252 246 239 237 238 240 241 241 242 243 244 244 244 245 247 249 253 259 265 270 276 283 290 295 303 311 316 317 320 325 329 333 336 337 339 342 344 344 345 345 347 348 348 346 344 342 341 340 340 341 343 344 344 345 344 344 344 344 344
244 252 258 259 258 260 262 262 259 255 254 256 260 261 258 256 254 248 242 240 242 244 245 245 246 248 248 247 247 250 251 253 257 262 267 271 277 283 290 299 308 313 315 318 321 324 328 330 332 335 339 342 343 343 343 344 344 344 342 341 340 340 339 341 342 344 345 344 344 344 344 344 344 345
241 249 257 260 260 259 260 262 261 258 256 255 257 260 259 258 258 256 249 245 244 246 247 248 248 250 252 252 250 252 253 255 257 261 265 271 277 282 288 294 302 307 310 313 316 318 322 325 328 331 337 340 341 341 340 340 341 341 341 340 339 339 339 342 344 345 345 344 344 344 345 345 345 345
241 245 252 257 259 259 259 261 262 262 259 256 255 258 260 260 260 258 255 251 248 248 249 250 250 251 254 256 255 255 255 257 259 262 268 274 278 283 286 291 296 301 304 307 310 314 318 322 325 329 334 337 338 338 337 338 339 340 340 340 339 339 340 343 345 345 345 345 345 346 346 345 344 344
241 243 248 253 257 258 258 260 263 264 263 259 256 256 258 260 260 260 258 255 253 252 251 252 252 253 254 257 259 259 258 259 262 265 270 274 278 281 285 289 294 297 300 303 306 311 315 318 321 326 331 333 335 335 336 337 338 340 340 339 338 339 341 342 344 345 346 346 347 346 345 344 343 344
241 243 244 248 253 255 257 260 262 263 264 263 260 258 258 258 260 262 262 259 256 255 253 253 254 255 255 257 261 263 262 262 264 266 270 273 277 281 285 288 292 294 297 300 304 308 312 314 318 322 327 330 332 333 334 336 337 338 338 338 339 340 341 341 343 345 346 346 346 344 343 343 343 346
243 245 244 245 248 252 254 256 258 259 260 261 260 260 259 258 260 262 264 263 261 258 256 254 255 258 258 259 261 264 265 265 266 268 270 273 276 280 283 287 290 292 295 298 301 306 309 312 315 319 324 327 329 331 332 334 335 337 338 339 339 339 340 341 343 345 345 345 344 343 343 344 346 349
243 246 248 247 247 249 252 253 254 255 255 256 257 258 259 259 260 261 263 266 265 263 260 257 256 258 260 262 264 266 267 268 268 270 272 275 276 278 281 285 288 291 293 296 299 303 308 310 312 316 320 324 325 327 329 331 334 336 337 338 339 339 339 340 342 343 343 343 344 344 346 347 348 350
242 245 249 251 250 249 250 251 251 252 253 255 256 257 258 260 260 260 262 265 266 266 264 260 257 258 261 264 266 267 268 270 271 272 275 277 278 280 281 283 286 288 291 294 297 300 304 308 310 313 317 320 321 323 326 330 333 334 335 336 338 339 339 339 341 342 342 343 345 347 348 349 350 351
242 245 249 251 252 251 250 251 252 252 252 253 255 256 257 259 260 259 260 262 264 266 266 263 260 258 261 265 267 268 269 271 273 275 276 278 280 282 282 283 285 286 289 291 293 296 300 304 307 311 315 317 319 321 324 328 331 332 333 335 337 338 338 338 339 340 341 343 346 349 351 351 351 352
242 245 248 250 251 251 251 252 253 253 251 250 252 254 255 257 259 258 258 260 262 265 266 266 263 261 262 265 267 268 270 273 276 277 278 279 281 282 283 284 284 285 287 288 290 292 297 300 303 307 311 313 316 318 321 324 327 330 332 334 335 337 337 337 338 339 341 343 346 350 352 352 352 353
239 243 246 249 251 251 252 253 253 253 250 247 248 250 253 255 255 255 256 259 261 263 265 265 265 264 264 265 267 269 272 275 277 278 279 281 283 283 284 285 285 285 286 286 287 290 294 297 299 302 306 309 311 314 317 320 324 327 330 332 334 335 335 335 336 337 339 342 346 350 352 352 352 353
237 241 244 247 249 250 252 253 253 252 250 246 245 247 248 251 253 254 256 257 258 260 262 263 264 264 264 265 267 271 274 276 277 279 280 282 284 285 286 287 286 286 286 286 286 288 292 294 297 299 302 305 308 311 315 319 323 326 328 330 331 332 333 333 333 334 337 340 344 347 349 350 350 351
235 239 242 244 247 249 250 251 252 251 249 246 244 244 245 247 251 254 255 256 256 257 258 260 263 263 264 265 269 273 275 276 277 278 280 282 284 285 287 287 286 285 285 285 285 287 289 292 294 297 299 303 306 310 314 319 323 325 326 327 328 329 330 330 330 332 335 338 340 342 344 346 348 349
235 238 241 243 245 247 248 249 249 248 247 245 243 244 245 247 250 253 255 256 256 256 257 259 262 263 265 268 272 274 276 277 278 279 281 283 285 286 287 286 284 283 283 284 284 285 287 290 291 294 297 301 305 308 312 318 323 324 323 324 324 326 326 326 327 330 332 334 336 337 338 341 344 346
237 239 242 243 244 246 247 247 247 246 245 244 243 244 246 249 251 253 255 256 257 258 260 261 263 266 269 272 274 275 277 279 280 282 284 285 286 287 286 285 282 281 281 282 283 284 285 287 289 291 294 299 302 305 310 315 319 321 322 322 322 323 323 323 324 327 329 331 332 333 332 334 338 340
240 241 243 244 245 246 246 246 245 245 244 243 243 245 248 250 252 254 255 257 259 260 263 265 267 270 272 274 275 277 278 280 281 283 285 286 286 285 284 283 281 280 279 280 282 284 284 285 286 289 292 297 300 303 307 312 315 318 320 320 320 320 320 321 322 324 325 326 327 328 327 328 331 334
243 244 244 245 245 246 246 247 246 245 245 244 244 245 248 249 251 253 256 258 261 263 266 268 270 271 273 275 276 277 278 279 280 281 283 284 284 283 282 280 280 279 279 280 282 283 282 283 285 287 291 295 298 301 305 309 312 316 318 319 319 319 319 320 320 321 322 322 322 322 323 323 325 327
244 245 244 244 244 246 248 249 249 247 247 246 246 246 248 249 251 253 256 259 262 264 265 266 268 269 271 272 273 274 276 276 277 277 279 280 280 279 278 278 278 278 279 281 283 282 282 284 286 287 290 294 297 300 303 306 309 313 315 317 317 318 319 319 319 318 318 318 318 318 319 319 320 321
243 244 244 245 246 248 250 251 250 249 248 248 249 249 250 251 252 253 256 259 261 262 262 263 264 265 266 267 269 270 272 273 273 274 276 277 277 276 276 276 276 278 280 283 284 284 285 287 288 289 291 293 296 298 301 304 307 310 312 314 316 317 317 318 318 317 316 315 316 316 315 315 315 316
243 244 246 247 248 248 249 249 249 249 249 249 250 251 252 253 254 255 257 258 259 260 260 261 261 262 263 265 267 269 271 271 272 273 275 275 274 273 273 273 275 278 281 283 284 285 287 289 291 292 293 293 294 297 300 302 305 307 309 312 314 315 316 316 316 316 315 314 314 313 312 311 311 312
246 247 247 247 246 246 246 247 247 248 248 249 251 253 254 254 256 258 260 260 260 260 258 257 258 259 261 263 265 268 269 269 270 271 272 271 270 270 271 272 273 277 281 283 284 285 287 290 292 293 293 293 292 294 297 300 302 304 306 309 311 313 314 314 313 313 313 312 310 310 309 309 308 309
248 247 245 244 244 243 243 244 245 246 248 250 251 253 255 256 257 258 258 258 259 260 260 259 258 258 259 260 261 264 266 268 270 272 271 269 268 270 272 273 274 276 278 280 282 283 286 289 291 293 293 292 291 293 296 297 299 300 303 306 309 311 311 311 310 310 310 310 308 308 307 307 307 308
247 245 244 242 242 243 243 244 245 247 248 250 251 253 254 255 256 255 255 258 260 263 266 269 267 266 267 268 267 269 273 278 282 284 281 276 273 271 270 272 275 277 277 278 279 281 284 287 290 291 292 291 291 292 295 296 297 298 300 303 306 308 309 308 308 308 309 309 308 307 306 306 306 306
245 244 243 242 241 241 241 242 242 242 244 246 247 248 249 251 252 254 258 264 266 265 266 267 269 271 275 276 274 275 278 282 285 285 283 280 278 276 273 272 275 276 277 277 278 281 284 287 289 290 290 290 290 291 293 295 296 296 298 300 303 305 305 306 306 306 308 309 308 306 305 304 304 305
244 244 243 242 241 240 239 240 240 241 243 243 243 244 247 251 256 259 262 266 268 268 267 269 271 275 278 278 278 280 284 287 289 290 287 283 280 280 279 278 277 275 275 276 278 280 284 286 287 288 288 289 290 292 293 295 296 296 297 299 301 302 302 303 305 306 307 307 307 306 305 304 303 304
246 246 247 247 247 245 245 246 248 249 249 249 250 251 251 254 260 266 266 266 269 273 275 278 280 282 283 284 286 289 292 295 297 297 295 288 283 281 281 281 280 276 274 275 277 280 283 285 285 286 287 289 290 292 293 295 296 297 298 299 300 300 301 302 303 305 305 306 306 306 305 303 303 304
248 249 250 251 250 247 247 248 249 250 249 251 256 261 261 260 266 273 275 273 275 278 280 283 285 285 288 290 291 293 296 300 300 299 296 292 288 284 280 279 280 278 276 276 278 279 282 284 284 286 288 289 291 292 293 294 296 297 298 299 299 299 300 301 302 303 304 305 306 305 304 303 302 303
248 248 249 250 248 245 244 245 246 247 247 250 256 265 269 267 267 271 273 275 277 278 279 280 283 286 289 290 292 295 299 301 301 299 297 295 294 290 282 278 278 279 278 278 279 280 282 283 284 285 288 289 291 292 292 294 296 297 298 298 298 298 299 300 302 303 304 305 305 305 304 303 302 303
246 246 247 248 247 247 248 247 245 244 245 248 254 262 268 268 268 270 274 277 278 279 280 282 285 288 289 290 293 296 298 298 297 297 297 296 296 293 286 280 279 280 280 280 280 280 282 283 284 286 288 290 290 291 291 293 294 295 296 297 298 299 300 301 302 304 304 304 304 304 303 303 302 303
246 247 249 250 250 251 252 251 249 247 246 248 253 260 264 267 269 272 274 275 277 278 280 282 283 285 287 288 290 293 294 295 294 294 294 293 292 290 287 282 280 280 280 280 279 280 282 283 285 286 288 289 289 289 290 292 293 294 295 297 298 299 300 301 302 303 303 303 303 303 303 302 302 302
246 248 250 251 252 255 255 254 254 254 252 252 258 264 266 268 270 271 271 272 274 276 278 280 282 284 285 286 289 291 292 292 292 291 290 289 287 285 284 282 279 278 277 278 279 280 282 283 284 285 286 287 288 288 290 291 292 293 295 296 297 298 300 301 302 302 303 303 303 303 302 302 302 302
248 246 248 250 252 254 256 256 258 258 257 258 262 267 268 270 272 273 272 272 274 277 280 282 284 285 286 287 289 290 291 291 291 290 289 287 285 283 281 281 280 279 278 278 279 280 282 283 283 284 285 286 287 288 289 291 292 293 295 296 297 298 300 301 302 302 303 303 303 303 303 303 303 303